Weather History for McComb, MS

Change the Weather History Date:

Wednesday, May 7, 2014

  Actual Average Record
Temperature  
Mean Temperature 72 °F -  
Max Temperature 86 °F 80 °F 93 °F (1952)
Min Temperature 61 °F 59 °F 41 °F (1992)
Cooling Degree Days 8    
Growing Degree Days 22 (Base 50)    
Moisture  
Dew Point 62 °F    
Average Humidity 71    
Maximum Humidity 93    
Minimum Humidity 44    
Precipitation  
Precipitation 0.00 in - - ()
Sea Level Pressure  
Sea Level Pressure 30.00 in    
Wind  
Wind Speed 7 mph (SSE)    
Max Wind Speed 16 mph    
Max Gust Speed 25 mph    
Visibility 9 miles    
Events      
Averages and records for this station are not official NWS values.
T = Trace of Precipitation, MM = Missing Value Source: NWS Daily Summary

Daily Weather History Graph

Daily Weather History Graph

Search for Another Location

Airport:

Trip Planner

Search our weather history database for the weather conditions in past years. The results will help you decide how hot, cold, wet, or windy it might be!

Date:

Astronomy

May. 07, 2014 Rise Set
Actual Time 6:12 AM CDT 7:45 PM CDT
Civil Twilight 5:45 AM CDT 8:11 PM CDT
Nautical Twilight 5:14 AM CDT 8:42 PM CDT
Astronomical Twilight 4:42 AM CDT 9:15 PM CDT
Moon 1:16 PM CDT (5/7) 1:43 AM CDT (5/7)
Length of Visible Light 14h 25m
Length of Day
13h 33m
First Quarter, 55% of the Moon is Illuminated
May 7
First Quarter
May 14
Full
May 21
Last Quarter
May 28
New
Jun 5
First Quarter

Hourly Weather History & Observations

Time (CDT) Temp. Heat Index Dew Point Humidity Pressure Visibility Wind Dir Wind Speed Gust Speed Precip Events Conditions
12:53 AM 62.1 °F - 57.9 °F 86% 29.96 in 10.0 mi South 3.5 mph - N/A   Clear
1:53 AM 62.1 °F - 57.9 °F 86% 29.94 in 10.0 mi SSE 4.6 mph - N/A   Clear
2:53 AM 61.0 °F - 57.9 °F 90% 29.95 in 10.0 mi Calm Calm - N/A   Clear
3:53 AM 61.0 °F - 57.9 °F 90% 29.95 in 6.0 mi Calm Calm - N/A   Partly Cloudy
4:53 AM 63.0 °F - 61.0 °F 93% 29.97 in 6.0 mi South 3.5 mph - N/A   Overcast
5:53 AM 64.9 °F - 62.1 °F 90% 29.98 in 8.0 mi SSE 6.9 mph - N/A   Overcast
6:53 AM 66.0 °F - 63.0 °F 90% 30.00 in 8.0 mi SSE 5.8 mph - N/A   Overcast
7:53 AM 69.1 °F - 64.0 °F 84% 30.02 in 10.0 mi SSE 9.2 mph - N/A   Overcast
8:53 AM 72.0 °F - 64.0 °F 76% 30.05 in 10.0 mi SSE 10.4 mph - N/A   Overcast
9:53 AM 77.0 °F - 62.1 °F 60% 30.05 in 10.0 mi SSE 10.4 mph - N/A   Clear
10:53 AM 80.1 °F 80.7 °F 59.0 °F 48% 30.05 in 10.0 mi South 12.7 mph - N/A   Mostly Cloudy
12:53 PM 84.0 °F 84.0 °F 60.1 °F 44% 30.04 in 10.0 mi South 11.5 mph - N/A   Partly Cloudy
1:53 PM 82.9 °F 82.8 °F 59.0 °F 44% 30.03 in 10.0 mi South 12.7 mph 20.7 mph N/A   Scattered Clouds
2:53 PM 84.0 °F 84.9 °F 63.0 °F 49% 30.02 in 10.0 mi South 12.7 mph 25.3 mph N/A   Scattered Clouds
3:53 PM 84.0 °F 85.4 °F 64.0 °F 51% 30.01 in 10.0 mi South 13.8 mph 21.9 mph N/A   Partly Cloudy
4:53 PM 82.9 °F 84.0 °F 63.0 °F 51% 30.00 in 10.0 mi South 15.0 mph - N/A   Clear
5:53 PM 81.0 °F 82.2 °F 63.0 °F 54% 30.00 in 10.0 mi South 16.1 mph - N/A   Clear
6:53 PM 78.1 °F - 63.0 °F 60% 29.99 in 10.0 mi SSE 12.7 mph - N/A   Clear
7:53 PM 75.0 °F - 63.0 °F 66% 30.00 in 10.0 mi SSE 8.1 mph - N/A   Clear
8:53 PM 73.0 °F - 63.0 °F 71% 30.00 in 10.0 mi SE 8.1 mph - N/A   Clear
9:53 PM 71.1 °F - 64.0 °F 78% 30.02 in 10.0 mi SSE 6.9 mph - N/A   Clear
10:53 PM 70.0 °F - 64.9 °F 84% 30.02 in 10.0 mi SE 8.1 mph - N/A   Clear
11:53 PM 69.1 °F - 66.0 °F 90% 30.03 in 6.0 mi SE 8.1 mph - N/A   Clear